Find Starlink 33545

NORAD ID: 62101 Int'l Des: 2024-220 Owner: SPXS Country: US Constellation: starlink operational
LEOCIRCULAR

Live Position

Loading 3D Globe...

About Starlink 33545

Description loading...

Upcoming Passes

Passes for default location (London). Set your location on the main map for personalized predictions.

Altitude History

Loading altitude history...

Two-Line Element Set

1 62101U 24220P 26109.88003654 .00027985 00000-0 10224-2 0 9994
2 62101 43.0061 332.6706 0002704 246.8126 113.2441 15.27584818 79321
Epoch: Apr 19, 2026 • Age: 7 hours

Current Status

Altitude 487.8 km
Velocity 7.63 km/s
Sub-Earth Point 42.48°N, 144.12°E
Launch Date Nov 25, 2024
Age 1.3 years
Type internet

Technical Details

Classification Payload
Mass 530.00 kg
Dry Mass 500.00 kg
Total Mass 530.00 kg
Length 0.30 m
Diameter 4.10 m
Span 29.00 m
Shape Box + pan
Manufacturer SPXS
Bus Type Starlink V2MO
Phase Status In Orbit
Owner/State SPXS/US

Most Searched